Skip Page Navigation
NASA JPL Caltech
NASA Logo - Jet Propulsion Laboratory + View the NASA Portal
+ Center for Near-Earth Object Studies
JPL Home Earth Solar System Stars & Galaxies Technology
JPL Solar System Dynamics
BODIES ORBITS EPHEMERIDES TOOLS PHYSICAL DATA DISCOVERY FAQ SITE MAP
JPL Small-Body Database Browser
Search: [ help ]  
3063 Makhaon (1983 PV)
Classification: Jupiter Trojan          SPK-ID: 2003063
Ephemeris | Orbit Diagram | Orbital Elements | Mission Design | Physical Parameters | Discovery Circumstances ]

[ show orbit diagram ]
Orbital Elements at Epoch 2459200.5 (2020-Dec-17.0) TDB
Reference: JPL 42 (heliocentric ecliptic J2000)
 Element Value Uncertainty (1-sigma)   Units 
e .0583213148704429 2.2142e-08  
a 5.214660019126592 7.359e-08 au
q 4.9105341902088 1.426e-07 au
i 12.16140631647112 2.5092e-07 deg
node 287.8678863268433 2.4889e-06 deg
peri 204.4637189334179 2.1191e-05 deg
M 252.0337843434146 2.4412e-05 deg
tp 2460504.936082860597
(2024-Jul-13.43608286)
0.00031366 TDB
period 4349.480872085859
11.91
9.2071e-05
2.521e-07
d
yr
n .08276849826157681 1.7521e-09 deg/d
Q 5.518785848044384 7.7882e-08 au
  Orbit Determination Parameters
   # obs. used (total)      2519  
   data-arc span      32877 days (90.01 yr)  
   first obs. used      1931-02-18  
   last obs. used      2021-02-22  
   planetary ephem.      DE441  
   SB-pert. ephem.      SB441-N16  
   condition code      0  
   norm. resid. RMS      .38916  
   source      ORB  
   producer      Otto Matic  
   solution date      2021-Apr-12 14:38:15  

Additional Information
 Earth MOID = 3.92952 au 
 Jupiter MOID = .265777 au 
 T_jup = 2.952 
[ show covariance matrix ]

Ephemeris | Orbit Diagram | Orbital Elements | Mission Design | Physical Parameters | Discovery Circumstances ]

Physical Parameter Table
Parameter Symbol Value Units Sigma Reference Notes
absolute magnitude H 8.68   n/a MPCxxxxx  
diameter diameter 111.655 km 1.544 urn:nasa:pds:neowise_diameters_albedos::2.0[jupiter_trojans] (http://adsabs.harvard.edu/abs/2012ApJ...759...49G)  
rotation period rot_per 8.64 h n/a LCDB (Rev. 2020-October); Warner et al., 2009 Result based on less than full coverage, so that the period may be wrong by 30 percent or so.
Published Reference List:
[French, L.M.; Stephens, R.D.; Lederer, S.M.; Coley, D.R.; Rohl, D.A. (2011) Minor Planet Bull. 38, 116-120.]
[Mottola, S.; Di Martino, M.; Erikson, A.; Gonano-Beurer, M.; et al. (2011) Astron. J. 141, A170.]
[Alkema, M.S. (2013) Minor Planet Bull. 40, 133-137.]
[Stephens, R.D.; Coley, D.R.; Warner, B.D.; French, L.M. (2016) Minor Planet Bull. 43, 323-331.]
geometric albedo albedo 0.056   0.005 urn:nasa:pds:neowise_diameters_albedos::2.0[jupiter_trojans] (http://adsabs.harvard.edu/abs/2012ApJ...759...49G)  

3063 Makhaon (1983 PV)          Discovered 1983-Aug-04 by Karachkina, L. G. at Nauchnyj
Reference: DISCOVERY.DBLast Updated: 2003-08-29

Alternate Designations
 1983 PV = 1931 DT = 1964 YL = 1971 OE = 1971 QK1 = 1975 VT6 
Ephemeris | Orbit Diagram | Orbital Elements | Mission Design | Physical Parameters | Discovery Circumstances ]
ABOUT SSD CREDITS/AWARDS PRIVACY/COPYRIGHT GLOSSARY LINKS
FirstGov 2021-May-07 17:52 UT
(server date/time)  
NASA Home Page
Site Manager:   Ryan S. Park
Webmaster  Alan B. Chamberlin